When you browse on this site, cookies collect data to enhance your experience and personalize the content and advertising you see.
Visit our Privacy Policy to learn more. By continuing to use the site, you agree to this use of cookies and data.
  • In Latvia
  • List of Countries
  • For 7 days
  • Water Temperature
  • Weather Map
  • Weather Widgets
  • user-avatar
    Login

    Hourly Weather Babsk

    Today, 25 February, Tuesday

    Time Temperature Precipitation Wind Pressure Humidity
    00:00 +1°C° 0.3 mm 4 mps 742 mmHg 89%
    01:00 0°C° 0.3 mm 5 mps 741 mmHg 94%
    02:00 +1°C° 1.2 mm 5 mps 740 mmHg 94%
    03:00 +1°C° 1.2 mm 5 mps 739 mmHg 93%
    04:00 +1°C° 1.2 mm 5 mps 738 mmHg 93%
    05:00 +2°C° 0.4 mm 5 mps 737 mmHg 93%
    06:00 +3°C° 0.4 mm 5 mps 737 mmHg 93%
    07:00 +5°C° 0.4 mm 5 mps 736 mmHg 94%
    08:00 +5°C° 0.2 mm 6 mps 736 mmHg 92%
    09:00 +7°C° 0.2 mm 6 mps 736 mmHg 90%
    10:00 +6°C° 0.2 mm 7 mps 736 mmHg 88%
    11:00 +8°C° 0.1 mm 7 mps 735 mmHg 84%
    12:00 +8°C° 0.1 mm 7 mps 735 mmHg 80%
    13:00 +9°C° 0.1 mm 7 mps 735 mmHg 76%
    14:00 +9°C° 0.2 mm 7 mps 735 mmHg 78%
    15:00 +9°C° 0.2 mm 6 mps 734 mmHg 79%
    16:00 +8°C° 0.2 mm 6 mps 734 mmHg 80%
    17:00 +8°C° 0.3 mm 6 mps 734 mmHg 82%
    18:00 +8°C° 0.3 mm 6 mps 733 mmHg 84%
    19:00 +7°C° 0.3 mm 6 mps 733 mmHg 86%
    20:00 +7°C° 0.7 mm 6 mps 733 mmHg 84%
    21:00 +5°C° 0.7 mm 6 mps 733 mmHg 81%
    22:00 +5°C° 0.7 mm 5 mps 733 mmHg 79%
    23:00 +3°C° 0 mm 5 mps 733 mmHg 78%

    Tomorrow, 26 February, Wednesday

    Time Temperature Precipitation Wind Pressure Humidity
    00:00 +4°C° 0 mm 4 mps 733 mmHg 77%
    01:00 +3°C° 0 mm 3 mps 733 mmHg 75%
    02:00 +3°C° 0 mm 3 mps 733 mmHg 77%
    03:00 +3°C° 0 mm 4 mps 733 mmHg 79%
    04:00 +1°C° 0 mm 4 mps 732 mmHg 81%
    05:00 +2°C° 0 mm 3 mps 732 mmHg 82%
    06:00 +2°C° 0 mm 3 mps 731 mmHg 82%
    07:00 +1°C° 0 mm 3 mps 731 mmHg 83%
    08:00 +3°C° 0 mm 3 mps 731 mmHg 78%
    09:00 +4°C° 0 mm 4 mps 731 mmHg 74%
    10:00 +5°C° 0 mm 5 mps 730 mmHg 69%
    11:00 +5°C° 0 mm 5 mps 730 mmHg 67%
    12:00 +5°C° 0 mm 5 mps 730 mmHg 65%
    13:00 +6°C° 0 mm 5 mps 730 mmHg 64%
    14:00 +6°C° 0.2 mm 5 mps 730 mmHg 66%
    15:00 +5°C° 0.2 mm 4 mps 730 mmHg 68%
    16:00 +5°C° 0.2 mm 4 mps 730 mmHg 70%
    17:00 +3°C° 0.1 mm 5 mps 731 mmHg 73%
    18:00 +2°C° 0.1 mm 6 mps 731 mmHg 76%
    19:00 0°C° 0.1 mm 7 mps 731 mmHg 79%
    20:00 -1°C° 0 mm 6 mps 732 mmHg 78%
    21:00 0°C° 0 mm 5 mps 732 mmHg 77%
    22:00 0°C° 0 mm 4 mps 732 mmHg 76%
    23:00 -1°C° 0 mm 4 mps 732 mmHg 78%

    Day after tomorrow, 27 February, Thursday

    Time Temperature Precipitation Wind Pressure Humidity
    00:00 -1°C° 0 mm 5 mps 733 mmHg 80%
    01:00 -1°C° 0 mm 5 mps 733 mmHg 82%
    02:00 -1°C° 0.3 mm 5 mps 733 mmHg 84%
    03:00 -2°C° 0.3 mm 6 mps 733 mmHg 86%
    04:00 -2°C° 0.3 mm 6 mps 733 mmHg 89%
    05:00 -2°C° 0 mm 6 mps 734 mmHg 87%
    06:00 -2°C° 0 mm 6 mps 734 mmHg 84%
    07:00 -2°C° 0 mm 7 mps 735 mmHg 82%
    08:00 -2°C° 0.1 mm 7 mps 735 mmHg 81%
    09:00 -2°C° 0.1 mm 7 mps 735 mmHg 80%
    10:00 -2°C° 0.1 mm 7 mps 736 mmHg 79%
    11:00 -2°C° 0 mm 7 mps 736 mmHg 77%
    12:00 -1°C° 0 mm 7 mps 736 mmHg 74%
    13:00 -1°C° 0 mm 7 mps 736 mmHg 72%
    14:00 -1°C° 0 mm 6 mps 736 mmHg 70%
    15:00 -1°C° 0 mm 6 mps 736 mmHg 68%
    16:00 -1°C° 0 mm 6 mps 736 mmHg 67%
    17:00 -1°C° 0 mm 4 mps 736 mmHg 70%
    18:00 0°C° 0 mm 3 mps 736 mmHg 74%
    19:00 -1°C° 0 mm 2 mps 736 mmHg 78%
    20:00 -1°C° 0 mm 2 mps 736 mmHg 80%
    21:00 -1°C° 0 mm 2 mps 736 mmHg 82%
    22:00 -1°C° 0 mm 2 mps 736 mmHg 85%
    23:00 -1°C° 0 mm 2 mps 736 mmHg 85%

    28 February, Friday

    Time Temperature Precipitation Wind Pressure Humidity
    00:00 -1°C° 0 mm 2 mps 736 mmHg 86%
    01:00 +1°C° 0 mm 1 mps 736 mmHg 87%
    02:00 +1°C° 0 mm 1 mps 737 mmHg 87%
    03:00 +1°C° 0 mm 1 mps 737 mmHg 87%
    04:00 +1°C° 0 mm 1 mps 737 mmHg 88%
    05:00 +1°C° 0 mm 1 mps 737 mmHg 87%
    06:00 -1°C° 0 mm 2 mps 738 mmHg 87%
    07:00 -1°C° 0 mm 2 mps 738 mmHg 87%
    08:00 0°C° 0 mm 3 mps 739 mmHg 80%
    09:00 0°C° 0 mm 4 mps 739 mmHg 74%
    10:00 +1°C° 0 mm 5 mps 740 mmHg 67%
    11:00 +1°C° 0.1 mm 6 mps 740 mmHg 68%
    12:00 0°C° 0.1 mm 7 mps 740 mmHg 70%
    13:00 0°C° 0.1 mm 8 mps 741 mmHg 71%
    14:00 0°C° 0.1 mm 8 mps 741 mmHg 72%
    15:00 -1°C° 0.1 mm 7 mps 742 mmHg 74%
    16:00 -1°C° 0.1 mm 7 mps 742 mmHg 75%
    17:00 -2°C° 0 mm 7 mps 743 mmHg 76%
    18:00 -2°C° 0 mm 6 mps 743 mmHg 76%
    19:00 -3°C° 0 mm 6 mps 744 mmHg 76%
    20:00 -4°C° 0 mm 5 mps 745 mmHg 74%
    21:00 -4°C° 0 mm 5 mps 745 mmHg 72%
    22:00 -4°C° 0 mm 4 mps 745 mmHg 70%
    23:00 -4°C° 0 mm 4 mps 745 mmHg 70%

    29 February, Saturday

    Time Temperature Precipitation Wind Pressure Humidity
    00:00 -4°C° 0 mm 4 mps 746 mmHg 70%
    01:00 -4°C° 0 mm 4 mps 746 mmHg 70%
    02:00 -4°C° 0 mm 3 mps 745 mmHg 75%
    03:00 -4°C° 0 mm 3 mps 745 mmHg 80%
    04:00 -4°C° 0 mm 3 mps 745 mmHg 85%
    05:00 -4°C° 0 mm 3 mps 745 mmHg 84%
    06:00 -2°C° 0 mm 3 mps 745 mmHg 84%
    07:00 -2°C° 0 mm 2 mps 745 mmHg 84%
    08:00 -1°C° 0 mm 3 mps 744 mmHg 77%
    09:00 0°C° 0 mm 3 mps 744 mmHg 71%
    10:00 +1°C° 0 mm 3 mps 744 mmHg 64%
    11:00 +2°C° 0 mm 3 mps 743 mmHg 61%
    12:00 +3°C° 0 mm 4 mps 742 mmHg 57%
    13:00 +3°C° 0 mm 5 mps 741 mmHg 53%
    14:00 +2°C° 0 mm 5 mps 740 mmHg 56%
    15:00 +2°C° 0 mm 5 mps 740 mmHg 59%
    16:00 +2°C° 0 mm 5 mps 739 mmHg 62%
    17:00 +1°C° 0 mm 5 mps 738 mmHg 66%
    18:00 +1°C° 0 mm 5 mps 737 mmHg 70%
    19:00 0°C° 0 mm 5 mps 737 mmHg 75%
    20:00 -1°C° 0.2 mm 6 mps 736 mmHg 79%
    21:00 0°C° 0.2 mm 7 mps 735 mmHg 83%
    22:00 0°C° 0.2 mm 7 mps 735 mmHg 87%
    23:00 +2°C° 0.3 mm 7 mps 735 mmHg 87%

    1 March, Sunday

    Time Temperature Precipitation Wind Pressure Humidity
    00:00 +2°C° 0.3 mm 7 mps 735 mmHg 86%
    01:00 +2°C° 0.3 mm 7 mps 735 mmHg 85%
    02:00 +1°C° 0.1 mm 5 mps 735 mmHg 86%
    03:00 +1°C° 0.1 mm 4 mps 736 mmHg 86%
    04:00 +1°C° 0.1 mm 3 mps 736 mmHg 86%
    05:00 +1°C° 0 mm 3 mps 736 mmHg 87%
    06:00 0°C° 0 mm 4 mps 736 mmHg 89%
    07:00 0°C° 0 mm 4 mps 735 mmHg 91%
    08:00 +1°C° 0.1 mm 5 mps 735 mmHg 84%
    09:00 +3°C° 0.1 mm 7 mps 735 mmHg 77%
    10:00 +3°C° 0.1 mm 9 mps 735 mmHg 71%
    11:00 +4°C° 0.3 mm 8 mps 735 mmHg 68%
    12:00 +4°C° 0.3 mm 7 mps 735 mmHg 66%
    13:00 +3°C° 0.3 mm 7 mps 736 mmHg 64%
    14:00 +4°C° 0 mm 6 mps 736 mmHg 62%
    15:00 +4°C° 0 mm 6 mps 736 mmHg 59%
    16:00 +5°C° 0 mm 5 mps 737 mmHg 57%
    17:00 +4°C° 0 mm 4 mps 737 mmHg 62%
    18:00 +3°C° 0 mm 4 mps 738 mmHg 66%
    19:00 +2°C° 0 mm 3 mps 738 mmHg 71%
    20:00 +2°C° 0 mm 3 mps 739 mmHg 73%
    21:00 +1°C° 0 mm 3 mps 739 mmHg 74%
    22:00 +1°C° 0 mm 3 mps 740 mmHg 76%
    23:00 0°C° 0 mm 3 mps 740 mmHg 77%
    Show more